Location: Demmingen
(48.6757°N, 10.4375°E)
Time: 09:42:08
(UTC+00:00)

Cosmos 1980 Rocket - Pass Details

Date: 23 May 2024
Orbit: 827 x 851 km, 71.0° (Epoch: 15 June)

Event Time Altitude Azimuth Distance (km) Brightness Sun altitude
Rises 01:05:17 0° 321° (NW) 3,427 5.7 -16.4°
Reaches altitude 10° 01:08:17 10° 307° (NW) 2,486 4.8 -16.2°
Maximum altitude 01:12:28 21° 259° (W) 1,801 3.6 -15.9°
Enters shadow 01:13:51 20° 239° (WSW) 1,886 3.5 -15.8°
